Duncan, OK

7:59 PM CST on November 19, 2019 (GMT -0600)
Halliburton

Weather History for KDUC - September, 2019

Change the Weather History Date:

Sunday, September 1, 2019

  Actual Average (KLAW) Record (KLAW)
Temperature  
Mean Temperature 80 °F 80 °F  
Max Temperature 90 °F 93 °F 110 °F (1939)
Min Temperature 69 °F 68 °F 49 °F (1915)
Degree Days  
Heating Degree Days 0 0  
Month to date heating degree days 0  
Since 1 July heating degree days 0  
Cooling Degree Days 14 15  
Month to date cooling degree days 15  
Year to date cooling degree days 1931  
Growing Degree Days 30 (Base 50)    
Moisture  
Dew Point 71 °F    
Average Humidity 80    
Maximum Humidity 99    
Minimum Humidity 50    
Precipitation  
Precipitation 0.00 in 0.18 in 1.03 in (1981)
Month to date precipitation 0.18  
Year to date precipitation 20.86  
Sea Level Pressure  
Sea Level Pressure 30.09 in    
Wind  
Wind Speed 6 mph (East)    
Max Wind Speed 10 mph    
Max Gust Speed -    
Visibility 9 miles    
Events Fog    
T = Trace of Precipitation, MM = Missing Value Source: NWS Daily Summary

Daily Weather History Graph

Daily Weather History Graph

Search for Another Location

Airport or City:

Astronomy

Sep. 01, 2019 Rise Set
Actual Time 7:04 AM CDT 7:58 PM CDT
Civil Twilight 6:39 AM CDT 8:23 PM CDT
Nautical Twilight 6:08 AM CDT 8:54 PM CDT
Astronomical Twilight 5:37 AM CDT 9:25 PM CDT
Moon 9:31 AM CDT (9/1) 9:53 PM CDT (9/1)
Length of Visible Light 13h 44m
Length of Day
12h 53m
Waxing Crescent, 8% of the Moon is Illuminated
Sep 1
Waxing Crescent
Sep 5
First Quarter
Sep 13
Full
Sep 21
Last Quarter
Sep 28
New

Hourly Weather History & Observations

Time (CDT) Temp. Heat Index Dew Point Humidity Pressure Visibility Wind Dir Wind Speed Gust Speed Precip Events Conditions
12:15 AM 75.0 °F - 72.3 °F 91% 30.10 in 10.0 mi ENE 6.9 mph - N/A   Clear
12:55 AM 74.5 °F - 72.3 °F 93% 30.10 in 10.0 mi ENE 8.1 mph - N/A   Clear
1:15 AM 74.1 °F - 72.3 °F 94% 30.09 in 10.0 mi ENE 8.1 mph - N/A   Clear
1:35 AM 73.6 °F - 72.0 °F 95% 30.09 in 10.0 mi ENE 6.9 mph - N/A   Clear
1:55 AM 73.4 °F - 72.0 °F 95% 30.09 in 10.0 mi ENE 6.9 mph - N/A   Clear
2:15 AM 73.2 °F - 71.8 °F 95% 30.09 in 10.0 mi ENE 6.9 mph - N/A   Clear
2:35 AM 72.9 °F - 71.6 °F 96% 30.10 in 10.0 mi ENE 5.8 mph - N/A   Clear
2:55 AM 72.7 °F - 71.4 °F 96% 30.10 in 10.0 mi ENE 5.8 mph - N/A   Clear
3:15 AM 72.3 °F - 71.2 °F 96% 30.11 in 10.0 mi ENE 6.9 mph - N/A   Clear
3:35 AM 72.5 °F - 71.4 °F 96% 30.10 in 10.0 mi East 6.9 mph - N/A   Mostly Cloudy
3:55 AM 72.3 °F - 71.2 °F 96% 30.10 in 10.0 mi East 6.9 mph - N/A   Mostly Cloudy
4:15 AM 72.1 °F - 71.1 °F 96% 30.10 in 10.0 mi East 5.8 mph - N/A   Mostly Cloudy
4:35 AM 71.8 °F - 70.7 °F 96% 30.10 in 10.0 mi East 4.6 mph - N/A   Scattered Clouds
4:55 AM 71.2 °F - 70.5 °F 98% 30.09 in 10.0 mi East 5.8 mph - N/A   Clear
5:15 AM 70.9 °F - 70.3 °F 98% 30.09 in 7.0 mi East 4.6 mph - N/A   Clear
5:35 AM 70.3 °F - 69.8 °F 98% 30.09 in 7.0 mi East 5.8 mph - N/A   Clear
5:55 AM 70.7 °F - 70.2 °F 98% 30.10 in 7.0 mi ENE 6.9 mph - N/A   Scattered Clouds
6:15 AM 70.3 °F - 69.8 °F 98% 30.10 in 7.0 mi East 3.5 mph - N/A   Scattered Clouds
6:35 AM 69.8 °F - 69.4 °F 99% 30.10 in 7.0 mi East 4.6 mph - N/A   Scattered Clouds
6:55 AM 70.3 °F - 70.0 °F 99% 30.11 in 5.0 mi East 8.1 mph - N/A   Overcast
7:15 AM 70.2 °F - 69.8 °F 99% 30.12 in 0.8 mi ESE 3.5 mph - N/A   Overcast
7:35 AM 70.2 °F - 70.0 °F 99% 30.13 in 0.2 mi NE 3.5 mph - N/A Fog Fog
7:55 AM 70.3 °F - 70.2 °F 99% 30.13 in 0.5 mi NE 3.5 mph - N/A Fog Fog
8:15 AM 70.5 °F - 70.3 °F 99% 30.13 in 1.8 mi East 6.9 mph - N/A   Overcast
8:35 AM 70.7 °F - 70.3 °F 99% 30.13 in 2.0 mi ESE 4.6 mph - N/A   Overcast
8:55 AM 71.2 °F - 70.7 °F 98% 30.14 in 2.5 mi Calm Calm - N/A   Overcast
9:15 AM 72.5 °F - 71.4 °F 96% 30.13 in 7.0 mi SE 3.5 mph - N/A   Overcast
9:35 AM 73.6 °F - 71.1 °F 92% 30.13 in 10.0 mi Calm Calm - N/A   Overcast
9:55 AM 75.2 °F - 71.6 °F 89% 30.14 in 10.0 mi Calm Calm - N/A   Mostly Cloudy
10:15 AM 77.2 °F - 70.9 °F 81% 30.13 in 10.0 mi ESE 5.8 mph - N/A   Mostly Cloudy
10:35 AM 78.4 °F - 71.8 °F 80% 30.14 in 10.0 mi East 6.9 mph - N/A   Scattered Clouds
10:55 AM 79.5 °F - 71.2 °F 76% 30.14 in 10.0 mi South 4.6 mph - N/A   Clear
11:15 AM 81.1 °F 85.2 °F 71.2 °F 72% 30.13 in 10.0 mi ESE 6.9 mph - N/A   Scattered Clouds
11:35 AM 82.0 °F 86.3 °F 70.9 °F 69% 30.13 in 10.0 mi East 4.6 mph - N/A   Mostly Cloudy
11:55 AM 82.9 °F 87.0 °F 70.2 °F 65% 30.13 in 10.0 mi SE 4.6 mph - N/A   Clear
12:15 PM 84.0 °F 89.3 °F 71.6 °F 66% 30.12 in 10.0 mi SE 6.9 mph - N/A   Clear
12:35 PM 84.4 °F 89.4 °F 71.1 °F 64% 30.12 in 10.0 mi ESE 8.1 mph - N/A   Clear
1:15 PM 87.1 °F 94.1 °F 72.9 °F 62% 30.11 in 10.0 mi SSE 6.9 mph - N/A   Scattered Clouds
1:55 PM 86.7 °F 91.7 °F 70.2 °F 58% 30.10 in 10.0 mi Calm Calm - N/A   Scattered Clouds
2:15 PM 88.3 °F 93.6 °F 70.5 °F 55% 30.10 in 10.0 mi ESE 6.9 mph - N/A   Scattered Clouds
2:55 PM 88.7 °F 94.3 °F 70.5 °F 55% 30.08 in 10.0 mi East 4.6 mph - N/A   Scattered Clouds
3:35 PM 88.7 °F 93.5 °F 69.4 °F 53% 30.06 in 10.0 mi SSE 4.6 mph - N/A   Clear
3:55 PM 90.0 °F 94.5 °F 69.1 °F 50% 30.06 in 10.0 mi East 4.6 mph - N/A   Clear
4:15 PM 90.3 °F 95.7 °F 70.0 °F 51% 30.05 in 10.0 mi ESE 8.1 mph - N/A   Clear
4:35 PM 90.9 °F 96.2 °F 70.2 °F 50% 30.04 in 10.0 mi East 8.1 mph - N/A   Clear
4:55 PM 89.8 °F 94.6 °F 69.3 °F 51% 30.04 in 10.0 mi ESE 6.9 mph - N/A   Clear
5:15 PM 90.0 °F 95.4 °F 70.3 °F 52% 30.04 in 10.0 mi SE 8.1 mph - N/A   Clear
5:55 PM 90.0 °F 94.5 °F 69.3 °F 50% 30.03 in 10.0 mi ESE 9.2 mph - N/A   Clear
6:15 PM 89.6 °F 94.3 °F 69.3 °F 51% 30.03 in 10.0 mi SE 9.2 mph - N/A   Clear
6:35 PM 89.2 °F 94.1 °F 69.6 °F 52% 30.03 in 10.0 mi SE 10.4 mph - N/A   Clear
6:55 PM 88.0 °F 93.4 °F 70.7 °F 56% 30.03 in 10.0 mi SE 9.2 mph - N/A   Clear
7:15 PM 86.9 °F 92.1 °F 70.7 °F 58% 30.03 in 10.0 mi SE 10.4 mph - N/A   Clear
7:35 PM 85.3 °F 90.4 °F 71.1 °F 62% 30.03 in 10.0 mi SE 6.9 mph - N/A   Clear
8:15 PM 81.7 °F 85.8 °F 71.2 °F 70% 30.04 in 10.0 mi ESE 5.8 mph - N/A   Clear
8:35 PM 80.8 °F 84.7 °F 71.6 °F 73% 30.05 in 10.0 mi ESE 4.6 mph - N/A   Clear
8:55 PM 80.1 °F 83.8 °F 71.8 °F 76% 30.05 in 10.0 mi ESE 4.6 mph - N/A   Clear
9:15 PM 79.5 °F - 71.8 °F 77% 30.06 in 10.0 mi ESE 5.8 mph - N/A   Clear
9:35 PM 78.6 °F - 71.8 °F 79% 30.06 in 10.0 mi East 4.6 mph - N/A   Clear
9:55 PM 77.7 °F - 71.6 °F 81% 30.07 in 10.0 mi East 5.8 mph - N/A   Clear
10:15 PM 77.2 °F - 71.6 °F 83% 30.08 in 10.0 mi East 5.8 mph - N/A   Clear
10:35 PM 77.0 °F - 71.2 °F 82% 30.08 in 10.0 mi ESE 4.6 mph - N/A   Clear
11:15 PM 76.6 °F - 71.2 °F 83% 30.09 in 10.0 mi East 4.6 mph - N/A   Clear
11:35 PM 76.6 °F - 71.4 °F 84% 30.09 in 10.0 mi East 4.6 mph - N/A   Clear
11:55 PM 75.9 °F - 71.1 °F 85% 30.09 in 10.0 mi East 4.6 mph - N/A   Clear